When you browse on this site, cookies collect data to enhance your experience and personalize the content and advertising you see.
Visit our Privacy Policy to learn more. By continuing to use the site, you agree to this use of cookies and data.
  • In Netherlands
  • List of Countries
  • For 7 days
  • Water Temperature
  • Weather Map
  • Weather Widgets
  • user-avatar
    Login

    Hourly Weather Stanislawie

    Today, 20 September, Friday

    Time Temperature Precipitation Wind Pressure Humidity
    00:00 +8°C° 0 mm 3 mps 759 mmHg 76%
    01:00 +7°C° 0 mm 3 mps 759 mmHg 77%
    02:00 +7°C° 0 mm 3 mps 759 mmHg 76%
    03:00 +7°C° 0 mm 3 mps 759 mmHg 75%
    04:00 +7°C° 0 mm 2 mps 759 mmHg 74%
    05:00 +7°C° 0 mm 2 mps 759 mmHg 72%
    06:00 +8°C° 0 mm 3 mps 759 mmHg 70%
    07:00 +8°C° 0 mm 3 mps 759 mmHg 68%
    08:00 +10°C° 0 mm 3 mps 759 mmHg 61%
    09:00 +12°C° 0 mm 3 mps 759 mmHg 54%
    10:00 +13°C° 0 mm 3 mps 760 mmHg 46%
    11:00 +14°C° 0 mm 3 mps 759 mmHg 45%
    12:00 +16°C° 0 mm 3 mps 759 mmHg 44%
    13:00 +15°C° 0 mm 4 mps 759 mmHg 42%
    14:00 +14°C° 0 mm 3 mps 759 mmHg 50%
    15:00 +14°C° 0 mm 3 mps 758 mmHg 58%
    16:00 +13°C° 0 mm 3 mps 758 mmHg 66%
    17:00 +12°C° 0 mm 3 mps 758 mmHg 69%
    18:00 +12°C° 0 mm 3 mps 758 mmHg 72%
    19:00 +12°C° 0 mm 3 mps 758 mmHg 75%
    20:00 +12°C° 0 mm 4 mps 758 mmHg 78%
    21:00 +12°C° 0 mm 4 mps 757 mmHg 81%
    22:00 +11°C° 0 mm 4 mps 757 mmHg 84%
    23:00 +11°C° 0 mm 4 mps 757 mmHg 86%

    Tomorrow, 21 September, Saturday

    Time Temperature Precipitation Wind Pressure Humidity
    00:00 +11°C° 0 mm 4 mps 757 mmHg 89%
    01:00 +11°C° 0 mm 4 mps 757 mmHg 91%
    02:00 +11°C° 0 mm 4 mps 757 mmHg 91%
    03:00 +11°C° 0 mm 4 mps 757 mmHg 91%
    04:00 +11°C° 0 mm 4 mps 757 mmHg 90%
    05:00 +11°C° 0 mm 4 mps 757 mmHg 89%
    06:00 +11°C° 0 mm 4 mps 756 mmHg 88%
    07:00 +12°C° 0 mm 4 mps 756 mmHg 88%
    08:00 +12°C° 0 mm 4 mps 757 mmHg 85%
    09:00 +13°C° 0 mm 4 mps 757 mmHg 82%
    10:00 +13°C° 0 mm 4 mps 757 mmHg 80%
    11:00 +14°C° 0 mm 4 mps 757 mmHg 77%
    12:00 +14°C° 0 mm 4 mps 757 mmHg 74%
    13:00 +15°C° 0 mm 4 mps 757 mmHg 71%
    14:00 +15°C° 0 mm 4 mps 757 mmHg 70%
    15:00 +16°C° 0 mm 3 mps 756 mmHg 69%
    16:00 +16°C° 0 mm 3 mps 756 mmHg 68%
    17:00 +15°C° 0 mm 2 mps 756 mmHg 74%
    18:00 +14°C° 0 mm 2 mps 756 mmHg 80%
    19:00 +13°C° 0 mm 1 mps 756 mmHg 86%
    20:00 +12°C° 0 mm 1 mps 756 mmHg 88%
    21:00 +12°C° 0 mm 1 mps 756 mmHg 89%
    22:00 +11°C° 0 mm 1 mps 756 mmHg 91%
    23:00 +11°C° 0 mm 1 mps 756 mmHg 91%

    Day after tomorrow, 22 September, Sunday

    Time Temperature Precipitation Wind Pressure Humidity
    00:00 +11°C° 0 mm 1 mps 756 mmHg 92%
    01:00 +10°C° 0 mm 2 mps 756 mmHg 92%
    02:00 +10°C° 0 mm 2 mps 755 mmHg 92%
    03:00 +10°C° 0 mm 2 mps 755 mmHg 92%
    04:00 +10°C° 0 mm 1 mps 755 mmHg 92%
    05:00 +11°C° 0 mm 1 mps 755 mmHg 90%
    06:00 +12°C° 0 mm 1 mps 755 mmHg 88%
    07:00 +12°C° 0 mm 1 mps 755 mmHg 85%
    08:00 +14°C° 0 mm 2 mps 755 mmHg 76%
    09:00 +17°C° 0 mm 2 mps 755 mmHg 67%
    10:00 +19°C° 0 mm 2 mps 755 mmHg 58%
    11:00 +20°C° 0 mm 2 mps 755 mmHg 54%
    12:00 +21°C° 0 mm 2 mps 754 mmHg 49%
    13:00 +23°C° 0 mm 2 mps 754 mmHg 44%
    14:00 +23°C° 0 mm 2 mps 753 mmHg 45%
    15:00 +23°C° 0 mm 1 mps 753 mmHg 45%
    16:00 +23°C° 0 mm 1 mps 752 mmHg 46%
    17:00 +21°C° 0 mm 1 mps 752 mmHg 51%
    18:00 +19°C° 0 mm 1 mps 752 mmHg 57%
    19:00 +16°C° 0 mm 1 mps 752 mmHg 63%
    20:00 +16°C° 0 mm 1 mps 752 mmHg 64%
    21:00 +15°C° 0 mm 1 mps 752 mmHg 66%
    22:00 +14°C° 0 mm 1 mps 752 mmHg 67%
    23:00 +14°C° 0 mm 2 mps 752 mmHg 68%

    23 September, Monday

    Time Temperature Precipitation Wind Pressure Humidity
    00:00 +13°C° 0 mm 2 mps 751 mmHg 69%
    01:00 +13°C° 0 mm 2 mps 751 mmHg 69%
    02:00 +13°C° 0 mm 2 mps 751 mmHg 70%
    03:00 +12°C° 0 mm 2 mps 751 mmHg 70%
    04:00 +12°C° 0 mm 2 mps 750 mmHg 71%
    05:00 +12°C° 0 mm 2 mps 750 mmHg 71%
    06:00 +12°C° 0 mm 3 mps 750 mmHg 71%
    07:00 +12°C° 0 mm 3 mps 750 mmHg 72%
    08:00 +14°C° 0 mm 3 mps 750 mmHg 65%
    09:00 +17°C° 0 mm 4 mps 750 mmHg 59%
    10:00 +19°C° 0 mm 4 mps 750 mmHg 52%
    11:00 +20°C° 0 mm 4 mps 749 mmHg 48%
    12:00 +21°C° 0 mm 4 mps 749 mmHg 44%
    13:00 +22°C° 0 mm 4 mps 748 mmHg 40%
    14:00 +22°C° 0 mm 4 mps 748 mmHg 42%
    15:00 +22°C° 0 mm 4 mps 748 mmHg 43%
    16:00 +21°C° 0 mm 3 mps 748 mmHg 45%
    17:00 +20°C° 0 mm 3 mps 748 mmHg 51%
    18:00 +18°C° 0 mm 3 mps 748 mmHg 57%
    19:00 +16°C° 0 mm 2 mps 748 mmHg 64%
    20:00 +15°C° 0 mm 2 mps 748 mmHg 67%
    21:00 +14°C° 0 mm 2 mps 748 mmHg 69%
    22:00 +14°C° 0 mm 1 mps 749 mmHg 72%
    23:00 +13°C° 0 mm 1 mps 749 mmHg 75%

    24 September, Tuesday

    Time Temperature Precipitation Wind Pressure Humidity
    00:00 +13°C° 0 mm 1 mps 749 mmHg 78%
    01:00 +12°C° 0 mm 1 mps 749 mmHg 82%
    02:00 +12°C° 0 mm 1 mps 749 mmHg 84%
    03:00 +12°C° 0 mm 1 mps 749 mmHg 86%
    04:00 +11°C° 0 mm 1 mps 749 mmHg 89%
    05:00 +12°C° 0 mm 1 mps 750 mmHg 87%
    06:00 +12°C° 0 mm 1 mps 750 mmHg 86%
    07:00 +13°C° 0 mm 1 mps 750 mmHg 85%
    08:00 +15°C° 0 mm 1 mps 750 mmHg 77%
    09:00 +18°C° 0 mm 1 mps 751 mmHg 69%
    10:00 +19°C° 0 mm 1 mps 751 mmHg 60%
    11:00 +20°C° 0 mm 1 mps 751 mmHg 57%
    12:00 +21°C° 0 mm 1 mps 751 mmHg 53%
    13:00 +22°C° 0 mm 1 mps 751 mmHg 49%
    14:00 +22°C° 0 mm 1 mps 751 mmHg 49%
    15:00 +22°C° 0 mm 1 mps 751 mmHg 49%
    16:00 +22°C° 0 mm 1 mps 750 mmHg 49%
    17:00 +21°C° 0 mm 1 mps 750 mmHg 54%
    18:00 +19°C° 0 mm 1 mps 750 mmHg 60%
    19:00 +16°C° 0 mm 1 mps 750 mmHg 65%
    20:00 +16°C° 0 mm 1 mps 750 mmHg 68%
    21:00 +15°C° 0 mm 2 mps 750 mmHg 70%
    22:00 +15°C° 0 mm 2 mps 750 mmHg 72%
    23:00 +15°C° 0 mm 2 mps 750 mmHg 74%

    25 September, Wednesday

    Time Temperature Precipitation Wind Pressure Humidity
    00:00 +15°C° 0 mm 2 mps 750 mmHg 75%
    01:00 +14°C° 0 mm 2 mps 750 mmHg 77%
    02:00 +14°C° 0 mm 2 mps 749 mmHg 77%
    03:00 +14°C° 0 mm 2 mps 749 mmHg 78%
    04:00 +14°C° 0 mm 2 mps 749 mmHg 78%
    05:00 +14°C° 0.1 mm 2 mps 749 mmHg 79%
    06:00 +13°C° 0.1 mm 3 mps 748 mmHg 80%
    07:00 +13°C° 0.1 mm 3 mps 748 mmHg 80%
    08:00 +14°C° 0.1 mm 3 mps 748 mmHg 78%
    09:00 +16°C° 0.1 mm 3 mps 748 mmHg 76%
    10:00 +17°C° 0.1 mm 3 mps 748 mmHg 74%
    11:00 +17°C° 0.1 mm 3 mps 748 mmHg 72%
    12:00 +18°C° 0.1 mm 3 mps 747 mmHg 69%
    13:00 +19°C° 0.1 mm 3 mps 747 mmHg 67%
    14:00 +18°C° 0.5 mm 3 mps 746 mmHg 70%
    15:00 +18°C° 0.5 mm 2 mps 746 mmHg 74%
    16:00 +17°C° 0.5 mm 2 mps 746 mmHg 77%
    17:00 +17°C° 0.4 mm 2 mps 746 mmHg 81%
    18:00 +16°C° 0.4 mm 2 mps 745 mmHg 84%
    19:00 +16°C° 0.4 mm 2 mps 745 mmHg 87%
    20:00 +16°C° 0.5 mm 1 mps 745 mmHg 89%
    21:00 +15°C° 0.5 mm 1 mps 745 mmHg 91%
    22:00 +15°C° 0.5 mm 1 mps 745 mmHg 92%
    23:00 +15°C° 0.2 mm 1 mps 745 mmHg 93%
    Show more